Regional Weather Roundup
Issued by NWS Cleveland, OH

Home | Current Version | Previous Version | Text Only | Print | Product List | Glossary Off
Versions: 1 2 3 4 5 6 7 8 9 10 11 12 13 14 15 16 17 18 19 20 21 22 23 24 25 26 27 28 29 30 31 32 33 34 35 36 37 38 39 40 41 42 43 44 45 46 47 48 49 50

000
ASUS41 KCLE 210810
RWRCLE
OHIO REGIONAL WEATHER ROUNDUP
NATIONAL WEATHER SERVICE WILMINGTON, OH
400 AM EDT SAT APR 21 2018

NOTE: "FAIR" INDICATES FEW OR NO CLOUDS BELOW 12,000 FEET WITH NO
SIGNIFICANT WEATHER AND/OR OBSTRUCTIONS TO VISIBILITY.

OHZ001>008-015>018-024>027-034-035-043-044-210900-
   NORTHWEST OHIO

CITY           SKY/WX    TMP DP  RH WIND       PRES   REMARKS
DEFIANCE       FAIR      33  26  75 CALM      30.45S
FINDLAY        FAIR      35  24  64 S3        30.44R
TOLEDO EXPRESS FAIR      34  26  72 CALM      30.46R
TOLEDO EXEC    FAIR      35  24  64 CALM      30.47R
LIMA           FAIR      35  25  66 E5        30.44R
$$

OHZ009>014-019>023-028>033-038-089-210900-
   NORTHEAST OHIO

CITY           SKY/WX    TMP DP  RH WIND       PRES   REMARKS
CLE-HOPKINS    FAIR      30  23  75 CALM      30.48R
CLE-LAKEFRONT  FAIR      36  25  64 SE3       30.46R
CUY CO. ARPT   NOT AVBL
LORAIN-ELYRIA  FAIR      30  23  75 NW6       30.46R WCI  24
ASHTABULA      FAIR      27  24  89 CALM      30.45S
AKRON-CANTON   FAIR      34  20  56 NE3       30.44R
WOOSTER        FAIR      27  24  89 NW3       30.45R
MANSFIELD      FAIR      34  24  67 CALM      30.44R
YOUNGSTOWN     FAIR      31  21  66 CALM      30.43S
$$

OHZ042-051>053-060>062-070>072-077>081-210900-
  SOUTHWEST OHIO

CITY           SKY/WX    TMP DP  RH WIND       PRES   REMARKS
CINC-COVINGTON FAIR      43  27  53 E9        30.41S
CINC-LUNKEN    FAIR      38  36  92 CALM      30.44R
HAMILTON       FAIR      35  27  72 CALM      30.44S
DAYTON         FAIR      39  24  55 E7        30.44R
WRIGHT-PAT AFB FAIR      39  29  65 CALM      30.43S
DAYTON GENERAL FAIR      42  23  46 E5        30.42R
WILMINGTON     FAIR      37  27  67 E7        30.43R
$$

OHZ036-037-039>041-045>050-054>059-063>069-073>076-082>088-210900-
  CENTRAL AND SOUTHEAST OHIO

CITY           SKY/WX    TMP DP  RH WIND       PRES   REMARKS
COLUMBUS       FAIR      36  24  62 CALM      30.44R
OSU AIRPORT    FAIR      36  21  54 N3        30.44R
BOLTON FIELD   FAIR      36  24  60 NE3       30.44S
RICKENBACK AFB FAIR      37  23  57 NE6       30.44R
NEWARK         FAIR      31  26  82 CALM      30.44S
MARION         FAIR      30  23  75 CALM      30.46R
LANCASTER      FAIR      32  27  81 CALM      30.45R
ZANESVILLE     NOT AVBL
NEW PHILLY     FAIR      29  22  75 CALM      30.46R
$$



USA.gov is the U.S. government's official web portal to all federal, state and local government web resources and services.